World > North America > United States > New Jersey

West Milford, New Jersey Regional Weather

Lat: 41.11N, Lon: 74.4W
Wx Zone: NJZ002
Feedback

West Milford, NJ Regional Weather

Expires:202003281500;;199716
ASUS41 KPHI 281412
RWRPHI

REGIONAL WEATHER ROUNDUP
NATIONAL WEATHER SERVICE MOUNT HOLLY NJ
1000 AM EDT SAT MAR 28 2020

NOTE:  "FAIR" INDICATES FEW OR NO CLOUDS BELOW 12,000 FEET WITH NO
SIGNIFICANT WEATHER AND/OR OBSTRUCTIONS TO VISIBILITY.

 * = STATION DOES NOT REPORT PRECIPITATION (E.G. RAIN, SNOW, ETC.) 
        OR FOG.


NJZ001>014-281500-
NORTHERN NEW JERSEY
  
CITY           SKY/WX    TMP DP  RH WIND       PRES   REMARKS
SUSSEX         CLOUDY    47  29  49 CALM      30.13S                  
ANDOVER*         N/A     44  35  70 CALM      30.12S                  
MORRISTOWN     RAIN      45  41  87 CALM      30.14S                  
NEWARK         LGT RAIN  50  37  61 E8        30.15R                  
TETERBORO      CLOUDY    49  30  48 E5        30.14R                  
CALDWELL       LGT RAIN  50  32  50 E5        30.15R                  
SOMERVILLE     LGT RAIN  45  43  93 CALM      30.12R FOG              
ALLAIRE*       LGT RAIN  47  46  97 NW7       30.18R                  
TOMS RIVER*    RAIN      47  44  90 NW5       30.17R                  

$$

SKY/WX - Weather  TMP - Temperature  DP - Dew Point  RH - Relative Humidity
WIND - Wind Direction/Speed PRES - Barometric Pressure VSB - Visibility
WCI - Wind Chill Index E13G22 Wind - East Wind 13 mph/Gusts of 22 mph
West Milford Weather Map
UTC Time: 3/28/2020, 14:38
Your Time: